sat.trackr.live / text

‹ back to catalog

STARLINK-32609

NORAD 61929 · 2024-207T

PAYLOAD ACTIVE UNKNOWN

§ Identity

Operator
Country
US
Launch date
2024-11-11
Launch site
AFETR
Launch vehicle
Mass (kg)
RCS (m²)

Purposes: comms

External: N2YO · Heavens-Above · Gunter

§ Orbital elements

Epoch: 2026-05-25T04:40:11.521056Z

Period
94.27 min
Inclination
42.9975°
Eccentricity
0.0001169
Mean motion
15.27590557 rev/d
Perigee alt
482.2 km
Apogee alt
483.8 km
Semi-major
6,861.2 km
B*
5.3027e-4
RAAN
209.5812°
Arg perigee
287.8023°
Mean anomaly
72.2701°
Rev number
8,642

§ Raw data

STARLINK-326091 61929U 24207T   26145.19457779  .00014363  00000+0  53027-3 0  99952 61929  42.9975 209.5812 0001169 287.8023  72.2701 15.27590557 86424

JSON: /api/v1/satellites/61929 · /tle

For live sub-satellite position, see the globe view (requires WebGL).

§ Visibility from observer

Set your observer location to see the next 7 days of passes ≥ 10°. The values pass through the URL so the page stays shareable.

No JS? Fill the form by hand. The geolocation button needs JavaScript.